Погода в Юшково

Россия / Республика Марий Эл     56°42′43″N   48°05′04″E
темп.,
°C
ветер,
м/с
пор.,
м/с
влажн.,
%
обл.,
%
осадки,
мм/ч
давл.,
гПа
погр.,
м
17 мая, пн
пн1700:00+15юз229087 0.3 101523
03:00+15ююв019522 1.9 101611
06:00+18ю228594 0.3 1017141
09:00+23зсз2357100 0.3 1017564
12:00+26зсз2342100 0.0 10171288
15:00+27ссз234149 0.0 10171563
18:00+23ссв35606 0.0 1017153
21:00+18всв22735 0.2 101818
18 мая, вт
вт1800:00+17всв337452 0.0 101840
03:00+15всв348281 0.1 101856
06:00+18в387556 0.0 1019238
09:00+23в465497 0.0 1019631
12:00+26в444536 0.0 10191166
15:00+27в444439 0.0 10181385
18:00+24в486215 0.0 1018356
21:00+18в411688 0.0 1019212
19 мая, ср
ср1900:00+16вюв3116952 0.0 1019199
03:00+15вюв4127184 0.0 1019250
06:00+18вюв4117025 0.0 1019332
09:00+23вюв57505 0.0 1019732
12:00+25вюв56405 0.0 10191224
15:00+26юв56385 0.0 10181474
18:00+23вюв48542 0.0 1018434
21:00+17вюв411675 0.0 1018208
20 мая, чт
чт2000:00+16вюв413650 0.0 1018288
03:00+14юв412760 0.0 1018242
06:00+18ююв412660 0.0 1019454
09:00+23ююв69400 0.0 1018948
12:00+25ююв69325 0.0 10181448
15:00+25ююв68365 0.0 10181648
18:00+22ююв49495 0.0 1017769
21:00+16юв310680 0.0 1018171
21 мая, пт
пт2100:00+15ююв411695 0.0 1018213
03:00+13ююв31171100 0.0 1018199
06:00+16ююв411641 0.0 1018325
09:00+22ю69516 0.0 1017844
12:00+22юз695969 0.3 10181272
15:00+24юз6943100 0.3 10172237
18:00+21зюз5862100 0.0 1018747
21:00+16ююз368325 0.1 1019112